Regional Weather Roundup
Issued by NWS Midland/Odessa, TX

Skip options and go directly to product.
Home | Oldest Version | Next Version | Current Version | All | Text Only | Save Text | Print | Product List | Glossary On

Skip product version selection by date and time.   
170
ASUS44 KMAF 201202
RWRMAF
MIDLAND AREA WEATHER ROUNDUP
NATIONAL WEATHER SERVICE MIDLAND TX
700 AM CDT SUN APR 20 2014

...IN SOUTHWEST TEXAS AND SOUTHEAST NEW MEXICO...

CITY           SKY/WX    TMP DP  RH WIND       PRES   REMARKS
ALPINE         MOCLDY    52  51  97 SW8       30.18R
ANDREWS        MOCLDY    57  55  92 SW7       30.08R
ARTESIA        CLEAR     45  45 100 S8        30.09R
BIG SPRING     MOCLDY    60  56  88 CALM      30.08R
CARLSBAD       PTCLDY    54  51  90 N7        30.06R
DRYDEN           N/A     67  62  84 E10       30.05R
FORT STOCKTON  CLOUDY    59  56  89 S13       30.07S
GUAD PASS      FOG       50  50 100 W9        30.15S VSB 1/4
HOBBS          FOG       52  52 100 SW7       30.09  VSB 1/2
MARFA          CLOUDY    45  45 100 CALM      30.16R VSB 1/4
MIDLAND AIRPK  PTCLDY    60  56  89 CALM      30.07R
MIDLAND INTL   PTCLDY    59  56  89 SW10      30.07R
ODESSA         CLOUDY    59  56  89 W5        30.09R FOG
PECOS            N/A     56  55  97 N3        30.06S FOG
PRESIDIO       FAIR      60  51  71 N3        30.07S
SEMINOLE       MOCLDY    53  52  98 CALM      30.10R FOG
SNYDER         CLOUDY    58  56  94 CALM      30.06R
WINK           MOCLDY    58  57  97 SE7       30.05S
$$
...OTHER STATIONS IN TEXAS...

CITY           SKY/WX    TMP DP  RH WIND       PRES   REMARKS
ABILENE        CLOUDY    64  53  67 E5        30.05R
AMARILLO       PTCLDY    50  48  93 SE12      30.07R
AUSTIN         CLOUDY    62  60  93 E5        30.12R FOG
BROWNSVILLE    CLOUDY    70  68  93 SE7       30.07R
CORPUS CHRISTI CLOUDY    70  64  81 SE13      30.09S
DALLAS FTW     CLOUDY    65  56  72 S18       30.06F
DEL RIO        LGT RAIN  65  63  93 E8        30.05R FOG
EL PASO        PTCLDY    51  48  89 E7        30.10R
HOUSTON INT    MOCLDY    62  60  93 CALM      30.15R FOG
LUBBOCK        CLOUDY    55  54  96 W6        30.08R
SAN ANGELO     CLEAR     61  57  87 S13       30.02F
SAN ANTONIO    CLOUDY    66  62  87 E9        30.11R
WACO           PTCLDY    59  56  89 S6        30.13R
WICHITA FALLS  NOT AVBL
$$
...OTHER LOCATIONS IN NEW MEXICO...

CITY           SKY/WX    TMP DP  RH WIND       PRES   REMARKS
ALAMAGORDO     PTCLDY    45  43  93 S3        30.12S
ALBUQUERQUE    MOCLDY    47  43  86 SE7       30.12R
CANNON AFB     CLEAR     50  41  71 SW12      30.06F
CLOVIS         CLEAR     48  46  93 S10       30.09S
HOLLOMAN AFB   PTCLDY    45  44  97 SE5       30.11S
ROSWELL        MOCLDY    47  44  90 SW6       30.06R
RUIDOSO        CLOUDY    45  39  81 NW10      30.18R WCI  39
SANTA FE       PTCLDY    44  40  85 W5        30.11S
TRUTH OR CONSE CLOUDY    51  47  86 CALM      30.12R
TUCUMCARI      PTCLDY    51  44  77 W12       30.02R
$$

USA.gov is the U.S. government's official web portal to all federal, state and local government web resources and services.